QPF
0.06 0.05 0.06 0.08 0.12 0.17 0.24 0.31 0.37 0.40 0.37 0.33 0.30 0.27 0.24 0.23 0.23 0.22 0.23 0.29 0.31 0.24 0.21 0.20 0.14 0.09 0.06 0.04 0.03 0.02 0.02 0.02 0.01 0.01 0.00 0.00 0.00 0.00 0.00 0.00 0.00 0.00 0.00
0.04 0.03 0.04 0.07 0.08 0.09 0.13 0.21 0.34 0.47 0.49 0.43 0.38 0.36 0.34 0.32 0.30 0.32 0.30 0.28 0.33 0.27 0.21 0.19 0.16 0.11 0.08 0.06 0.04 0.03 0.02 0.02 0.03 0.03 0.02 0.01 0.00 0.00 0.00 0.00 0.00 0.00 0.00
0.02 0.02 0.03 0.04 0.05 0.07 0.09 0.13 0.19 0.28 0.36 0.38 0.37 0.38 0.42 0.39 0.32 0.29 0.32 0.30 0.26 0.30 0.28 0.23 0.20 0.16 0.12 0.09 0.06 0.06 0.05 0.04 0.04 0.04 0.02 0.02 0.01 0.01 0.00 0.00 0.00 0.00 0.00
0.02 0.02 0.02 0.02 0.02 0.03 0.05 0.07 0.10 0.15 0.22 0.29 0.31 0.31 0.30 0.32 0.32 0.30 0.27 0.26 0.28 0.27 0.28 0.28 0.23 0.19 0.14 0.12 0.11 0.10 0.09 0.07 0.05 0.04 0.03 0.02 0.02 0.02 0.02 0.02 0.02 0.00 0.00
0.02 0.02 0.02 0.02 0.01 0.01 0.01 0.03 0.05 0.09 0.15 0.21 0.23 0.22 0.22 0.20 0.21 0.23 0.24 0.21 0.23 0.23 0.21 0.20 0.23 0.18 0.16 0.16 0.14 0.14 0.13 0.10 0.07 0.04 0.03 0.02 0.02 0.02 0.02 0.02 0.03 0.02 0.00
0.02 0.02 0.02 0.03 0.02 0.01 0.01 0.03 0.05 0.07 0.08 0.11 0.14 0.15 0.16 0.14 0.13 0.11 0.10 0.12 0.13 0.13 0.13 0.15 0.17 0.15 0.16 0.15 0.13 0.12 0.12 0.12 0.10 0.06 0.04 0.03 0.03 0.02 0.01 0.01 0.03 0.03 0.03
0.01 0.02 0.02 0.03 0.03 0.02 0.03 0.04 0.05 0.05 0.06 0.07 0.08 0.08 0.07 0.07 0.07 0.06 0.05 0.05 0.09 0.11 0.11 0.15 0.17 0.13 0.10 0.11 0.08 0.09 0.10 0.12 0.13 0.09 0.07 0.05 0.05 0.03 0.02 0.01 0.01 0.02 0.04
0.00 0.00 0.00 0.01 0.02 0.03 0.04 0.06 0.07 0.05 0.05 0.07 0.09 0.09 0.06 0.04 0.05 0.05 0.05 0.05 0.06 0.11 0.15 0.18 0.17 0.11 0.08 0.06 0.03 0.03 0.05 0.07 0.12 0.13 0.10 0.07 0.06 0.05 0.02 0.01 0.01 0.01 0.02
0.00 0.00 0.00 0.01 0.01 0.03 0.04 0.06 0.08 0.07 0.06 0.06 0.09 0.11 0.08 0.04 0.04 0.06 0.07 0.07 0.07 0.09 0.13 0.18 0.16 0.10 0.07 0.05 0.03 0.02 0.04 0.05 0.08 0.12 0.12 0.09 0.05 0.03 0.02 0.01 0.01 0.00 0.00
0.00 0.00 0.00 0.00 0.00 0.01 0.02 0.04 0.07 0.09 0.08 0.07 0.08 0.09 0.09 0.07 0.05 0.04 0.07 0.08 0.07 0.08 0.07 0.10 0.12 0.10 0.07 0.04 0.02 0.01 0.01 0.02 0.04 0.07 0.09 0.09 0.06 0.03 0.01 0.01 0.02 0.01 0.00
0.00 0.00 0.00 0.00 0.00 0.00 0.01 0.01 0.04 0.07 0.10 0.11 0.10 0.09 0.09 0.09 0.07 0.04 0.03 0.04 0.05 0.04 0.03 0.03 0.03 0.04 0.04 0.03 0.01 0.01 0.00 0.00 0.01 0.03 0.05 0.06 0.05 0.03 0.02 0.02 0.04 0.05 0.03
0.00 0.00 0.00 0.00 0.00 0.00 0.00 0.00 0.01 0.02 0.06 0.09 0.10 0.11 0.12 0.12 0.09 0.06 0.02 0.01 0.02 0.03 0.03 0.02 0.02 0.01 0.01 0.02 0.01 0.00 0.01 0.00 0.00 0.01 0.02 0.03 0.03 0.03 0.02 0.03 0.05 0.07 0.08
0.00 0.00 0.00 0.00 0.00 0.00 0.00 0.00 0.00 0.00 0.01 0.03 0.06 0.08 0.11 0.10 0.11 0.11 0.08 0.04 0.02 0.03 0.04 0.03 0.02 0.01 0.01 0.01 0.01 0.02 0.02 0.02 0.01 0.01 0.01 0.02 0.02 0.02 0.02 0.02 0.02 0.04 0.06
0.00 0.00 0.00 0.00 0.00 0.00 0.00 0.00 0.00 0.00 0.00 0.00 0.02 0.05 0.07 0.05 0.09 0.14 0.13 0.12 0.08 0.05 0.08 0.06 0.04 0.03 0.02 0.01 0.01 0.01 0.02 0.02 0.01 0.01 0.01 0.01 0.01 0.01 0.01 0.01 0.01 0.02 0.02
0.00 0.00 0.00 0.00 0.00 0.00 0.00 0.00 0.00 0.00 0.00 0.00 0.00 0.01 0.03 0.04 0.05 0.08 0.12 0.16 0.15 0.10 0.07 0.07 0.07 0.06 0.05 0.03 0.02 0.01 0.02 0.01 0.01 0.00 0.00 0.00 0.00 0.00 0.00 0.00 0.00 0.01 0.01
0.00 0.00 0.00 0.00 0.00 0.00 0.00 0.00 0.00 0.00 0.00 0.00 0.00 0.00 0.01 0.02 0.04 0.05 0.09 0.14 0.17 0.15 0.10 0.07 0.07 0.09 0.09 0.05 0.03 0.03 0.02 0.01 0.01 0.00 0.00 0.00 0.00 0.00 0.00 0.00 0.00 0.00 0.00
0.00 0.00 0.00 0.00 0.00 0.00 0.00 0.00 0.00 0.00 0.00 0.00 0.00 0.00 0.00 0.01 0.03 0.04 0.07 0.10 0.14 0.16 0.15 0.11 0.12 0.16 0.15 0.09 0.06 0.03 0.02 0.01 0.00 0.00 0.00 0.00 0.00 0.00 0.00 0.00 0.00 0.00 0.00
0.00 0.00 0.00 0.00 0.00 0.00 0.00 0.00 0.00 0.00 0.01 0.00 0.00 0.00 0.00 0.00 0.01 0.03 0.05 0.08 0.10 0.13 0.16 0.17 0.18 0.21 0.21 0.18 0.14 0.05 0.01 0.00 0.00 0.00 0.00 0.00 0.00 0.00 0.00 0.00 0.00 0.00 0.00
0.00 0.00 0.00 0.00 0.00 0.00 0.00 0.00 0.00 0.00 0.01 0.00 0.01 0.01 0.00 0.00 0.00 0.01 0.03 0.05 0.07 0.10 0.12 0.15 0.18 0.23 0.30 0.31 0.20 0.07 0.01 0.00 0.00 0.00 0.00 0.00 0.00 0.00 0.00 0.00 0.00 0.00 0.00
0.00 0.00 0.00 0.00 0.00 0.00 0.00 0.00 0.00 0.00 0.00 0.00 0.00 0.01 0.01 0.01 0.01 0.01 0.01 0.03 0.05 0.09 0.11 0.14 0.19 0.27 0.32 0.36 0.25 0.13 0.03 0.01 0.00 0.00 0.00 0.01 0.01 0.01 0.01 0.01 0.01 0.01 0.01
0.00 0.00 0.00 0.00 0.00 0.00 0.00 0.00 0.00 0.00 0.00 0.01 0.01 0.01 0.01 0.02 0.02 0.01 0.01 0.02 0.04 0.07 0.10 0.12 0.17 0.26 0.30 0.32 0.22 0.14 0.07 0.02 0.00 0.00 0.00 0.00 0.00 0.00 0.01 0.01 0.01 0.01 0.01
0.00 0.00 0.00 0.00 0.00 0.00 0.00 0.00 0.00 0.00 0.00 0.01 0.01 0.01 0.01 0.02 0.03 0.02 0.02 0.01 0.03 0.05 0.08 0.10 0.13 0.19 0.23 0.24 0.25 0.19 0.09 0.03 0.01 0.00 0.00 0.01 0.01 0.01 0.01 0.00 0.01 0.01 0.01
0.00 0.00 0.00 0.00 0.00 0.00 0.00 0.00 0.00 0.00 0.00 0.00 0.01 0.01 0.01 0.01 0.02 0.03 0.03 0.03 0.02 0.03 0.06 0.09 0.12 0.14 0.22 0.26 0.28 0.21 0.11 0.05 0.01 0.00 0.00 0.01 0.01 0.01 0.01 0.01 0.02 0.02 0.01
0.00 0.00 0.00 0.00 0.00 0.00 0.00 0.00 0.00 0.00 0.00 0.00 0.01 0.02 0.02 0.02 0.03 0.06 0.06 0.04 0.02 0.02 0.02 0.06 0.10 0.14 0.19 0.29 0.33 0.32 0.24 0.10 0.03 0.01 0.00 0.00 0.01 0.01 0.01 0.01 0.03 0.03 0.02
0.00 0.00 0.00 0.01 0.01 0.00 0.01 0.01 0.01 0.01 0.01 0.01 0.01 0.02 0.04 0.04 0.04 0.08 0.10 0.07 0.04 0.02 0.02 0.03 0.07 0.12 0.17 0.25 0.35 0.40 0.33 0.16 0.05 0.01 0.00 0.00 0.00 0.01 0.01 0.02 0.02 0.03 0.02
0.01 0.01 0.01 0.01 0.02 0.01 0.01 0.01 0.01 0.01 0.01 0.02 0.02 0.03 0.06 0.08 0.07 0.08 0.11 0.10 0.06 0.03 0.03 0.02 0.04 0.08 0.13 0.21 0.30 0.31 0.30 0.22 0.09 0.02 0.00 0.00 0.00 0.00 0.01 0.01 0.01 0.01 0.01
MSLP
1013.21 1013.14 1013.04 1012.95 1012.92 1012.95 1013.05 1013.20 1013.38 1013.57 1013.74 1013.88 1014.01 1014.13 1014.25 1014.36 1014.47 1014.57 1014.63 1014.66 1014.66 1014.65 1014.65 1014.69 1014.82 1015.05 1015.36 1015.76 1016.21 1016.66 1017.09 1017.47 1017.81 1018.11 1018.40 1018.71 1019.05 1019.42 1019.83 1020.25 1020.63 1020.97 1021.26
1012.94 1012.85 1012.77 1012.71 1012.71 1012.76 1012.87 1013.00 1013.16 1013.31 1013.44 1013.56 1013.68 1013.80 1013.91 1014.03 1014.13 1014.21 1014.24 1014.24 1014.20 1014.16 1014.14 1014.18 1014.31 1014.54 1014.87 1015.28 1015.73 1016.19 1016.62 1017.00 1017.35 1017.68 1018.00 1018.35 1018.74 1019.16 1019.61 1020.06 1020.47 1020.82 1021.11
1012.71 1012.61 1012.55 1012.53 1012.57 1012.65 1012.76 1012.89 1013.01 1013.12 1013.21 1013.30 1013.39 1013.48 1013.58 1013.68 1013.76 1013.81 1013.81 1013.76 1013.68 1013.61 1013.57 1013.60 1013.74 1013.98 1014.33 1014.76 1015.22 1015.68 1016.12 1016.51 1016.87 1017.21 1017.56 1017.94 1018.37 1018.83 1019.31 1019.79 1020.22 1020.60 1020.90
1012.54 1012.44 1012.39 1012.42 1012.49 1012.60 1012.72 1012.83 1012.91 1012.97 1013.01 1013.05 1013.10 1013.16 1013.24 1013.31 1013.36 1013.37 1013.32 1013.23 1013.11 1013.00 1012.94 1012.97 1013.12 1013.38 1013.75 1014.20 1014.68 1015.15 1015.60 1016.00 1016.37 1016.72 1017.09 1017.49 1017.94 1018.43 1018.93 1019.42 1019.88 1020.28 1020.61
1012.43 1012.32 1012.29 1012.34 1012.45 1012.57 1012.69 1012.77 1012.81 1012.82 1012.80 1012.79 1012.79 1012.82 1012.86 1012.90 1012.92 1012.89 1012.80 1012.66 1012.51 1012.37 1012.29 1012.31 1012.46 1012.74 1013.14 1013.60 1014.10 1014.59 1015.05 1015.46 1015.84 1016.20 1016.58 1016.99 1017.45 1017.95 1018.46 1018.97 1019.44 1019.86 1020.22
1012.37 1012.24 1012.22 1012.29 1012.41 1012.53 1012.63 1012.68 1012.67 1012.62 1012.54 1012.48 1012.44 1012.44 1012.46 1012.47 1012.46 1012.40 1012.27 1012.10 1011.90 1011.73 1011.63 1011.64 1011.79 1012.08 1012.49 1012.97 1013.48 1013.99 1014.46 1014.88 1015.27 1015.64 1016.03 1016.45 1016.90 1017.40 1017.91 1018.43 1018.91 1019.35 1019.74
1012.36 1012.21 1012.17 1012.24 1012.35 1012.45 1012.52 1012.52 1012.46 1012.35 1012.23 1012.13 1012.06 1012.04 1012.04 1012.05 1012.02 1011.93 1011.78 1011.57 1011.34 1011.14 1011.01 1011.00 1011.14 1011.42 1011.82 1012.30 1012.82 1013.33 1013.81 1014.25 1014.65 1015.03 1015.42 1015.84 1016.30 1016.79 1017.31 1017.82 1018.31 1018.77 1019.19
1012.37 1012.19 1012.14 1012.18 1012.25 1012.32 1012.35 1012.30 1012.19 1012.04 1011.88 1011.76 1011.68 1011.66 1011.66 1011.67 1011.64 1011.54 1011.37 1011.14 1010.88 1010.64 1010.47 1010.42 1010.52 1010.77 1011.15 1011.61 1012.12 1012.62 1013.11 1013.55 1013.96 1014.36 1014.77 1015.19 1015.66 1016.15 1016.66 1017.17 1017.67 1018.13 1018.57
1012.41 1012.19 1012.11 1012.11 1012.14 1012.16 1012.13 1012.03 1011.88 1011.70 1011.52 1011.40 1011.33 1011.32 1011.34 1011.37 1011.35 1011.25 1011.07 1010.82 1010.53 1010.25 1010.04 1009.94 1009.99 1010.18 1010.50 1010.92 1011.39 1011.87 1012.34 1012.79 1013.22 1013.63 1014.06 1014.51 1014.98 1015.49 1016.00 1016.51 1017.01 1017.48 1017.93
1012.46 1012.22 1012.10 1012.05 1012.03 1012.00 1011.91 1011.77 1011.58 1011.38 1011.20 1011.08 1011.04 1011.06 1011.11 1011.16 1011.16 1011.07 1010.89 1010.62 1010.31 1009.99 1009.73 1009.57 1009.55 1009.66 1009.91 1010.26 1010.67 1011.11 1011.56 1012.00 1012.44 1012.88 1013.34 1013.81 1014.31 1014.83 1015.35 1015.87 1016.37 1016.84 1017.29
1012.52 1012.27 1012.12 1012.03 1011.95 1011.86 1011.72 1011.53 1011.32 1011.11 1010.94 1010.84 1010.82 1010.87 1010.96 1011.03 1011.05 1010.98 1010.80 1010.53 1010.20 1009.85 1009.54 1009.32 1009.22 1009.25 1009.41 1009.68 1010.02 1010.40 1010.82 1011.25 1011.69 1012.15 1012.63 1013.14 1013.67 1014.21 1014.74 1015.26 1015.76 1016.22 1016.67
1012.59 1012.34 1012.16 1012.03 1011.90 1011.76 1011.57 1011.35 1011.12 1010.91 1010.75 1010.67 1010.68 1010.75 1010.86 1010.95 1010.99 1010.93 1010.76 1010.49 1010.15 1009.79 1009.45 1009.18 1009.02 1008.98 1009.05 1009.23 1009.49 1009.81 1010.18 1010.59 1011.02 1011.50 1012.00 1012.53 1013.08 1013.63 1014.18 1014.70 1015.18 1015.64 1016.07
1012.65 1012.41 1012.21 1012.05 1011.88 1011.69 1011.47 1011.22 1010.98 1010.77 1010.62 1010.55 1010.57 1010.66 1010.77 1010.88 1010.92 1010.87 1010.72 1010.46 1010.14 1009.78 1009.43 1009.14 1008.94 1008.83 1008.84 1008.94 1009.13 1009.39 1009.71 1010.08 1010.51 1010.98 1011.49 1012.03 1012.58 1013.13 1013.67 1014.18 1014.65 1015.08 1015.49
1012.67 1012.44 1012.24 1012.06 1011.86 1011.64 1011.39 1011.13 1010.88 1010.66 1010.52 1010.46 1010.47 1010.56 1010.66 1010.76 1010.80 1010.76 1010.62 1010.40 1010.10 1009.77 1009.45 1009.16 1008.95 1008.83 1008.79 1008.85 1008.98 1009.19 1009.46 1009.79 1010.18 1010.63 1011.12 1011.65 1012.19 1012.72 1013.23 1013.71 1014.14 1014.55 1014.92
1012.62 1012.42 1012.22 1012.02 1011.81 1011.57 1011.30 1011.03 1010.78 1010.56 1010.41 1010.34 1010.35 1010.41 1010.49 1010.57 1010.60 1010.56 1010.44 1010.25 1010.00 1009.72 1009.45 1009.22 1009.03 1008.92 1008.88 1008.92 1009.02 1009.19 1009.42 1009.71 1010.07 1010.48 1010.94 1011.42 1011.91 1012.40 1012.86 1013.29 1013.68 1014.04 1014.38
1012.48 1012.30 1012.11 1011.90 1011.68 1011.43 1011.17 1010.89 1010.64 1010.43 1010.28 1010.19 1010.17 1010.20 1010.25 1010.29 1010.30 1010.26 1010.16 1010.01 1009.82 1009.61 1009.42 1009.25 1009.14 1009.07 1009.06 1009.11 1009.21 1009.36 1009.57 1009.83 1010.15 1010.51 1010.91 1011.34 1011.77 1012.18 1012.58 1012.94 1013.27 1013.58 1013.88
1012.23 1012.06 1011.87 1011.67 1011.45 1011.21 1010.95 1010.69 1010.44 1010.23 1010.07 1009.97 1009.92 1009.91 1009.92 1009.93 1009.92 1009.87 1009.79 1009.67 1009.54 1009.42 1009.31 1009.23 1009.20 1009.20 1009.25 1009.34 1009.47 1009.63 1009.83 1010.08 1010.36 1010.68 1011.03 1011.39 1011.75 1012.08 1012.40 1012.68 1012.94 1013.19 1013.45
1011.86 1011.69 1011.52 1011.32 1011.11 1010.88 1010.63 1010.39 1010.15 1009.95 1009.79 1009.67 1009.60 1009.55 1009.53 1009.50 1009.46 1009.41 1009.34 1009.26 1009.18 1009.13 1009.10 1009.11 1009.16 1009.25 1009.37 1009.52 1009.69 1009.89 1010.11 1010.36 1010.63 1010.93 1011.23 1011.54 1011.83 1012.10 1012.34 1012.55 1012.74 1012.93 1013.15
1011.39 1011.22 1011.05 1010.86 1010.65 1010.43 1010.21 1009.98 1009.76 1009.57 1009.41 1009.29 1009.20 1009.13 1009.07 1009.02 1008.96 1008.90 1008.83 1008.78 1008.75 1008.75 1008.79 1008.87 1009.00 1009.16 1009.35 1009.57 1009.80 1010.05 1010.31 1010.59 1010.88 1011.18 1011.47 1011.75 1012.00 1012.22 1012.41 1012.56 1012.70 1012.85 1013.02
1010.84 1010.66 1010.48 1010.29 1010.09 1009.88 1009.67 1009.46 1009.26 1009.08 1008.93 1008.81 1008.71 1008.63 1008.56 1008.49 1008.42 1008.35 1008.29 1008.26 1008.25 1008.28 1008.37 1008.50 1008.68 1008.90 1009.15 1009.43 1009.73 1010.04 1010.36 1010.70 1011.03 1011.37 1011.69 1011.98 1012.24 1012.45 1012.61 1012.74 1012.85 1012.96 1013.10
1010.23 1010.04 1009.84 1009.65 1009.44 1009.23 1009.02 1008.82 1008.63 1008.46 1008.32 1008.21 1008.11 1008.04 1007.97 1007.90 1007.83 1007.77 1007.72 1007.69 1007.70 1007.75 1007.85 1008.01 1008.22 1008.47 1008.76 1009.09 1009.45 1009.82 1010.22 1010.63 1011.04 1011.45 1011.84 1012.19 1012.50 1012.75 1012.94 1013.08 1013.19 1013.29 1013.42
1009.60 1009.37 1009.15 1008.94 1008.72 1008.49 1008.28 1008.07 1007.88 1007.72 1007.58 1007.48 1007.39 1007.33 1007.28 1007.23 1007.18 1007.14 1007.10 1007.09 1007.10 1007.16 1007.27 1007.42 1007.64 1007.90 1008.22 1008.58 1008.98 1009.42 1009.89 1010.38 1010.89 1011.40 1011.89 1012.35 1012.75 1013.08 1013.35 1013.54 1013.69 1013.81 1013.94
1008.95 1008.69 1008.43 1008.18 1007.93 1007.68 1007.44 1007.22 1007.01 1006.84 1006.71 1006.61 1006.54 1006.50 1006.48 1006.46 1006.45 1006.44 1006.44 1006.44 1006.47 1006.53 1006.64 1006.78 1006.99 1007.24 1007.56 1007.93 1008.37 1008.86 1009.39 1009.98 1010.59 1011.22 1011.84 1012.42 1012.95 1013.40 1013.77 1014.07 1014.29 1014.46 1014.61
1008.30 1007.99 1007.70 1007.40 1007.11 1006.82 1006.54 1006.28 1006.05 1005.86 1005.72 1005.63 1005.57 1005.56 1005.57 1005.60 1005.63 1005.67 1005.71 1005.76 1005.81 1005.89 1005.99 1006.13 1006.31 1006.56 1006.86 1007.24 1007.68 1008.21 1008.80 1009.46 1010.17 1010.91 1011.65 1012.37 1013.04 1013.64 1014.15 1014.56 1014.88 1015.13 1015.33
1007.65 1007.30 1006.96 1006.62 1006.28 1005.95 1005.62 1005.32 1005.06 1004.84 1004.68 1004.57 1004.53 1004.54 1004.58 1004.66 1004.75 1004.85 1004.94 1005.04 1005.13 1005.23 1005.35 1005.49 1005.67 1005.90 1006.19 1006.55 1007.00 1007.54 1008.17 1008.88 1009.67 1010.50 1011.36 1012.20 1013.01 1013.75 1014.40 1014.94 1015.38 1015.73 1016.00
1007.00 1006.61 1006.23 1005.84 1005.47 1005.09 1004.73 1004.39 1004.09 1003.84 1003.65 1003.53 1003.49 1003.51 1003.58 1003.69 1003.83 1003.99 1004.14 1004.30 1004.44 1004.59 1004.73 1004.89 1005.07 1005.29 1005.57 1005.93 1006.37 1006.91 1007.55 1008.29 1009.12 1010.02 1010.96 1011.90 1012.82 1013.68 1014.45 1015.13 1015.68 1016.14 1016.50
Thickness
5743 5740 5738 5736 5734 5732 5730 5727 5724 5721 5719 5717 5715 5714 5714 5715 5717 5719 5723 5728 5730 5731 5732 5732 5733 5734 5735 5735 5734 5733 5732 5732 5731 5730 5730 5729 5729 5728 5728 5727 5726 5725 5724
5739 5736 5733 5731 5729 5728 5726 5724 5722 5719 5718 5715 5713 5713 5714 5713 5714 5717 5720 5724 5726 5728 5729 5730 5732 5733 5733 5733 5733 5732 5731 5731 5730 5729 5728 5728 5728 5727 5727 5726 5725 5724 5723
5733 5731 5728 5726 5725 5723 5722 5720 5719 5717 5715 5713 5712 5712 5711 5712 5713 5715 5717 5720 5723 5725 5727 5729 5730 5731 5732 5733 5732 5732 5731 5730 5729 5728 5727 5727 5727 5726 5726 5726 5725 5724 5723
5727 5725 5722 5720 5719 5718 5717 5715 5714 5712 5710 5709 5709 5709 5710 5712 5713 5714 5716 5718 5721 5723 5726 5728 5729 5731 5732 5733 5732 5732 5731 5730 5729 5728 5727 5726 5726 5725 5725 5725 5724 5723 5722
5720 5718 5716 5715 5714 5712 5711 5710 5709 5707 5706 5706 5706 5707 5708 5710 5713 5715 5716 5718 5720 5721 5724 5727 5728 5730 5732 5733 5733 5732 5732 5731 5729 5728 5727 5726 5725 5724 5724 5723 5723 5722 5722
5712 5711 5709 5708 5707 5705 5704 5704 5704 5704 5703 5703 5703 5705 5707 5709 5711 5713 5716 5718 5719 5721 5723 5725 5727 5729 5731 5733 5733 5733 5732 5731 5730 5729 5728 5726 5725 5724 5723 5722 5722 5722 5721
5701 5701 5700 5699 5698 5698 5697 5698 5698 5698 5697 5698 5696 5697 5702 5707 5710 5713 5717 5718 5719 5721 5723 5724 5726 5728 5731 5732 5733 5733 5733 5732 5731 5730 5729 5727 5726 5724 5723 5722 5721 5721 5720
5690 5691 5691 5690 5690 5689 5690 5690 5690 5690 5691 5693 5690 5688 5689 5697 5706 5714 5716 5717 5719 5720 5722 5724 5725 5727 5728 5731 5733 5733 5733 5733 5732 5731 5729 5728 5726 5724 5723 5722 5720 5720 5719
5680 5680 5681 5681 5681 5680 5680 5681 5683 5682 5682 5686 5687 5685 5682 5684 5694 5705 5711 5715 5717 5718 5720 5723 5725 5726 5727 5729 5731 5733 5734 5733 5733 5731 5729 5728 5726 5724 5723 5721 5720 5719 5718
5670 5671 5672 5673 5672 5672 5671 5672 5674 5675 5675 5676 5679 5682 5683 5685 5684 5689 5700 5708 5712 5715 5718 5721 5723 5725 5726 5727 5729 5732 5733 5734 5733 5731 5729 5728 5726 5724 5722 5721 5720 5718 5717
5660 5660 5661 5663 5663 5662 5663 5663 5665 5666 5667 5668 5669 5672 5675 5678 5681 5680 5684 5694 5702 5709 5714 5717 5720 5723 5725 5726 5728 5730 5732 5732 5732 5731 5729 5727 5726 5724 5722 5721 5720 5718 5717
5650 5650 5650 5651 5652 5652 5652 5653 5655 5657 5658 5659 5661 5664 5666 5668 5671 5674 5676 5682 5689 5699 5708 5712 5715 5719 5723 5725 5727 5728 5730 5730 5730 5730 5729 5727 5726 5724 5722 5721 5720 5719 5717
5638 5638 5638 5639 5640 5641 5643 5644 5645 5647 5649 5651 5652 5655 5659 5662 5665 5668 5670 5674 5680 5689 5698 5705 5711 5715 5719 5721 5723 5725 5726 5727 5727 5728 5727 5726 5725 5723 5722 5721 5720 5719 5717
5630 5629 5628 5628 5629 5630 5632 5634 5635 5636 5639 5642 5645 5647 5650 5654 5658 5661 5663 5665 5668 5676 5685 5695 5704 5709 5713 5716 5719 5721 5722 5724 5724 5724 5724 5724 5723 5722 5721 5720 5719 5718 5717
5623 5621 5620 5618 5618 5619 5620 5622 5624 5626 5628 5631 5635 5638 5641 5645 5649 5653 5656 5659 5660 5662 5671 5683 5693 5701 5705 5709 5712 5714 5717 5719 5719 5720 5720 5720 5720 5720 5719 5719 5718 5717 5716
5614 5612 5610 5608 5607 5607 5608 5609 5612 5614 5617 5620 5623 5627 5631 5636 5639 5643 5647 5651 5654 5656 5661 5673 5683 5692 5697 5700 5702 5706 5709 5711 5712 5714 5715 5715 5715 5716 5717 5717 5717 5716 5715
5603 5600 5598 5597 5596 5596 5596 5597 5598 5601 5604 5607 5610 5614 5619 5624 5629 5633 5637 5642 5646 5650 5653 5664 5675 5683 5687 5690 5692 5695 5698 5701 5704 5706 5709 5710 5711 5713 5715 5715 5715 5714 5713
5593 5590 5588 5586 5585 5585 5585 5585 5586 5589 5590 5593 5597 5600 5605 5611 5616 5621 5626 5631 5636 5642 5646 5653 5662 5671 5677 5681 5683 5685 5687 5691 5695 5698 5702 5705 5707 5710 5711 5712 5713 5712 5711
5584 5582 5579 5577 5576 5575 5575 5575 5575 5576 5577 5580 5583 5586 5591 5595 5601 5607 5614 5620 5626 5633 5639 5644 5652 5660 5666 5669 5671 5673 5676 5681 5685 5689 5694 5698 5702 5705 5707 5708 5709 5709 5708
5577 5574 5572 5570 5568 5566 5565 5564 5564 5564 5564 5566 5568 5571 5575 5580 5586 5593 5600 5607 5614 5621 5628 5635 5642 5649 5655 5659 5663 5664 5666 5670 5676 5680 5685 5690 5694 5698 5700 5702 5703 5704 5704
5572 5569 5565 5562 5559 5557 5555 5553 5551 5551 5550 5550 5552 5554 5558 5564 5572 5578 5586 5593 5601 5608 5616 5624 5631 5638 5644 5649 5654 5657 5659 5662 5666 5671 5676 5681 5685 5689 5691 5694 5696 5697 5698
5565 5561 5558 5555 5551 5550 5548 5545 5541 5538 5536 5535 5535 5537 5541 5547 5555 5563 5572 5581 5589 5596 5604 5613 5621 5629 5637 5644 5649 5651 5654 5656 5659 5663 5668 5670 5675 5678 5681 5685 5687 5689 5691
5558 5554 5550 5547 5543 5541 5537 5534 5531 5527 5524 5522 5521 5522 5526 5533 5539 5546 5556 5567 5577 5587 5597 5605 5612 5622 5631 5639 5643 5644 5648 5652 5654 5658 5661 5661 5663 5667 5670 5674 5678 5680 5682
5552 5548 5544 5540 5536 5534 5530 5526 5522 5517 5514 5511 5510 5510 5511 5516 5522 5528 5537 5549 5561 5573 5586 5596 5607 5616 5624 5632 5639 5643 5645 5643 5645 5649 5655 5654 5654 5655 5659 5662 5666 5670 5672
5547 5542 5539 5535 5531 5528 5524 5518 5513 5507 5503 5501 5499 5499 5500 5504 5509 5515 5522 5535 5548 5559 5571 5584 5595 5605 5615 5624 5630 5631 5632 5635 5637 5640 5646 5648 5646 5646 5647 5650 5654 5658 5661
5542 5538 5535 5531 5527 5522 5518 5512 5505 5498 5493 5490 5488 5488 5491 5494 5499 5504 5512 5523 5535 5547 5559 5570 5581 5593 5604 5614 5622 5629 5633 5635 5636 5635 5639 5642 5640 5641 5639 5640 5643 5647 5650